User: anonymous   Login
Location: Goheenville
(40.9070°N, 79.3720°W)
Time: 17:49:33
(UTC-04:00)
Language:

Cosmos 1727 Rocket - Orbit

View from above orbital plane
View from above orbital plane
View from above satellite
View from above satellite

Ground track
Ground track

The orbit data is extracted from the following two-line orbital elements,

1 16511U 86008B   16207.84729084 +.00000052 +00000-0 +38114-4 0  9992
2 16511 082.9453 101.9447 0025437 112.8158 292.3752 13.75805889531148
Epoch (UTC): 25 July 2016 20:20:05
Eccentricity: 0.0025437
inclination: 82.9453°
perigee height: 960 km
apogee height: 997 km
right ascension of ascending node: 101.9447°
argument of perigee: 112.8158°
revolutions per day: 13.75805889
mean anomaly at epoch: 292.3752°
orbit number at epoch: 53114

The dashed part of the orbit path shows where the satellite is in the earth's shadow,  

DLR